Tracking 28091 objects as of 29-Sep-2023
HD Live streaming from Space Station
objects crossing your sky now

STARLINK-3737

Track STARLINK-3737 now!
10-day predictions
STARLINK-3737 is classified as:


NORAD ID: 52114
Int'l Code: 2022-029AC
Perigee: 545.7 km
Apogee: 547.9 km
Inclination: 53.2 °
Period: 95.4 minutes
Semi major axis: 6917 km
RCS: Unknown
Launch date: March 19, 2022
Source: United States (US)
Launch site: AIR FORCE EASTERN TEST RANGE (AFETR)
Your satellite tracking list
Your tracking list is empty




NASA's NSSDC Master Catalog

Two Line Element Set (TLE):
1 52114U 22029AC  23272.03403583  .00010298  00000-0  66368-3 0  9992
2 52114  53.2165 126.4063 0001541 117.7289 242.3860 15.08866827 86038
Source of the keplerian elements: AFSPC